Change the Weather History Date:

Tuesday, January 8, 2013

  Actual Average Record
Temperature  
Mean Temperature 82 °F -  
Max Temperature 88 °F 81 °F 88 °F (2013)
Min Temperature 75 °F 73 °F 69 °F (2001)
Cooling Degree Days 16    
Growing Degree Days 32 (Base 50)    
Moisture  
Dew Point 72 °F    
Average Humidity 72    
Maximum Humidity 89    
Minimum Humidity 55    
Precipitation  
Precipitation 0.00 in - - ()
Sea Level Pressure  
Sea Level Pressure 29.97 in    
Wind  
Wind Speed 11 mph ()    
Max Wind Speed 26 mph    
Max Gust Speed -    
Visibility 8.0 miles    
Events Rain    
Averages and records for this station are not official NWS values.
T = Trace of Precipitation, MM = Missing Value Source: Averaged Metar Reports

Daily Weather History Graph

Daily Weather History Graph

Search for Another Location

Airport or City:

Trip Planner

Search our weather history database for the weather conditions in past years. The results will help you decide how hot, cold, wet, or windy it might be!

Date:

Astronomy

Jan. 08, 2013 Rise Set
Actual Time 6:45 AM EST 5:51 PM EST
Civil Twilight 6:22 AM EST 6:14 PM EST
Nautical Twilight 5:55 AM EST 6:41 PM EST
Astronomical Twilight 5:28 AM EST 7:08 PM EST
Moon 3:19 AM EST (1/8) 2:50 PM EST (1/8)
Length of Visible Light 11h 52m
Length of Day
11h 05m
Waning Crescent, 14% of the Moon is Illuminated
Jan 8
Waning Crescent
Jan 11
New
Jan 18
First Quarter
Jan 26
Full
Feb 3
Last Quarter

Hourly Weather History & Observations

Time (EST) Temp. Heat Index Dew Point Humidity Pressure Visibility Wind Dir Wind Speed Gust Speed Precip Events Conditions
12:00 AM 77.0 °F - 69.8 °F 78% 29.98 in 6.2 mi SE 9.2 mph - N/A   Partly Cloudy
1:00 AM 76 °F - 71 °F 78% 29.97 in 12 mi SE 4.6 mph - -   Scattered Clouds
1:00 AM 75.2 °F - 69.8 °F 83% 29.95 in 6.2 mi SE 4.6 mph - N/A   Partly Cloudy
2:00 AM 75.2 °F - 71.6 °F 89% 29.95 in 6.2 mi East 6.9 mph - N/A   Partly Cloudy
3:00 AM 77.0 °F - 71.6 °F 83% 29.92 in 6.2 mi ESE 4.6 mph - N/A   Partly Cloudy
4:00 AM 78 °F - 71 °F 74% 29.93 in 12 mi East 9.2 mph - -   Scattered Clouds
4:00 AM 77.0 °F - 71.6 °F 83% 29.92 in 6.2 mi East 9.2 mph - N/A   Partly Cloudy
5:00 AM 78.8 °F - 71.6 °F 78% 29.92 in 6.2 mi East 5.8 mph - N/A   Scattered Clouds
6:00 AM 78.8 °F - 71.6 °F 78% 29.92 in 6.2 mi East 10.4 mph - N/A   Scattered Clouds
7:00 AM 78 °F - 72 °F 76% 29.98 in 12 mi East 15.0 mph - - Rain Light Rain Showers
7:00 AM 78.8 °F - 71.6 °F 78% 29.98 in 6.2 mi East 15.0 mph - N/A   Mostly Cloudy
8:00 AM 80.6 °F 83.9 °F 69.8 °F 70% 29.98 in 6.2 mi ESE 9.2 mph - N/A   Scattered Clouds
9:00 AM 78.8 °F - 71.6 °F 78% 30.01 in 6.2 mi East 9.2 mph - N/A   Mostly Cloudy
10:00 AM 83 °F - 70 °F 57% 30.03 in 17 mi ESE 13.8 mph - -   Partly Cloudy
10:00 AM 82.4 °F 86.3 °F 69.8 °F 66% 30.01 in 6.2 mi ESE 13.8 mph - N/A   Mostly Cloudy
11:00 AM 84.2 °F 92.3 °F 75.2 °F 74% 30.01 in 6.2 mi East 17.3 mph - N/A   Partly Cloudy
12:00 PM 86.0 °F 93.4 °F 73.4 °F 66% 29.98 in 6.2 mi East 18.4 mph - N/A   Partly Cloudy
1:00 PM 86 °F - 72 °F 55% 29.98 in 15 mi East 18.4 mph - -   Haze
1:00 PM 86.0 °F 91.8 °F 71.6 °F 62% 29.98 in 6.2 mi East 18.4 mph - N/A   Partly Cloudy
2:00 PM 86.0 °F 93.4 °F 73.4 °F 66% 29.95 in 6.2 mi ENE 23.0 mph - N/A   Partly Cloudy
3:00 PM 86.0 °F 91.8 °F 71.6 °F 62% 29.92 in 6.2 mi East 26.5 mph - N/A   Partly Cloudy
4:00 PM 85 °F - 72 °F 58% 29.95 in 15 mi East 25.3 mph - -   Haze
4:00 PM 84.2 °F 90.9 °F 73.4 °F 70% 29.95 in 6.2 mi East 25.3 mph - N/A   Partly Cloudy
5:00 PM 86.0 °F 90.4 °F 69.8 °F 58% 29.95 in 6.2 mi East 24.2 mph - N/A   Partly Cloudy
6:00 PM 80.6 °F 84.6 °F 71.6 °F 74% 29.98 in 6.2 mi East 23.0 mph - N/A   Partly Cloudy
7:00 PM 81 °F - 71 °F 64% 30.00 in 12 mi ESE 20.7 mph - -   Scattered Clouds
7:00 PM 80.6 °F 84.6 °F 71.6 °F 74% 29.98 in 6.2 mi ESE 20.7 mph - N/A   Partly Cloudy
8:00 PM 80.6 °F 84.6 °F 71.6 °F 74% 30.01 in 6.2 mi ESE 13.8 mph - N/A   Partly Cloudy
9:00 PM 80.6 °F 84.6 °F 71.6 °F 74% 30.01 in 6.2 mi East 17.3 mph - N/A   Partly Cloudy
10:00 PM 79 °F - 71 °F 72% 30.03 in 12 mi ESE 8.1 mph - -   Scattered Clouds
10:00 PM 78.8 °F - 71.6 °F 78% 30.01 in 6.2 mi ESE 8.1 mph - N/A   Partly Cloudy
11:00 PM 78.8 °F - 71.6 °F 78% 30.01 in 6.2 mi ESE 12.7 mph - N/A   Partly Cloudy